Location: Aubrey
(33.1990°N, 85.1361°W)
Time: 11:18:11
(UTC+00:00)

X-37B - Pass Details

Date: 26 September 2021
Orbit: 385 x 389 km, 45.0° (Epoch: 17 October)

Event Time Altitude Azimuth Distance (km) Brightness Sun altitude
Exits shadow 10:26:41 - 328° (NNW) 1,533 3.4 -14.4°
Reaches altitude 10° 10:27:40 10° 344° (NNW) 1,412 3.3 -14.2°
Maximum altitude 10:28:13 10° 354° (N) 1,393 3.4 -14.0°
Drops below altitude 10° 10:28:47 10° 5° (N) 1,413 3.6 -13.9°
Sets 10:32:31 0° 50° (NE) 2,270 5.5 -13.2°
